Weather History for Alexandria, LA

Change the Weather History Date:

Monday, January 7, 2013

  Actual Average Record
Temperature  
Mean Temperature 44 °F 49 °F  
Max Temperature 59 °F 59 °F 80 °F (1978)
Min Temperature 29 °F 39 °F 17 °F (2014)
Degree Days  
Heating Degree Days 21 16  
Month to date heating degree days 137 112  
Since 1 July heating degree days 846 901  
Moisture  
Dew Point 35 °F    
Average Humidity 71    
Maximum Humidity 100    
Minimum Humidity 41    
Precipitation  
Precipitation 0.00 in 0.14 in 4.60 in (1998)
Month to date precipitation 3.26 1.04  
Year to date precipitation 3.26 1.04  
Snow  
Snow 0.00 in - 0.00 in ()
Month to date snowfall 0.0  
Since 1 July snowfall 0.0  
Snow Depth 0.00 in    
Sea Level Pressure  
Sea Level Pressure 30.28 in    
Wind  
Wind Speed 3 mph (ENE)    
Max Wind Speed 10 mph    
Max Gust Speed 13 mph    
Visibility 7 miles    
Events      
T = Trace of Precipitation, MM = Missing Value Source: NWS Daily Summary

Daily Weather History Graph

Daily Weather History Graph

Search for Another Location

Airport:

Trip Planner

Search our weather history database for the weather conditions in past years. The results will help you decide how hot, cold, wet, or windy it might be!

Date:

Astronomy

Jan. 07, 2013 Rise Set
Actual Time 7:10 AM CST 5:23 PM CST
Civil Twilight 6:43 AM CST 5:49 PM CST
Nautical Twilight 6:13 AM CST 6:20 PM CST
Astronomical Twilight 5:44 AM CST 6:49 PM CST
Moon 2:38 AM CST (1/7) 1:31 PM CST (1/7)
Length of Visible Light 11h 06m
Length of Day
10h 13m
Waning Crescent, 22% of the Moon is Illuminated
Jan 7
Waning Crescent
Jan 11
New
Jan 18
First Quarter
Jan 26
Full
Feb 3
Last Quarter

Hourly Weather History & Observations

Time (CST) Temp. Windchill Dew Point Humidity Pressure Visibility Wind Dir Wind Speed Gust Speed Precip Events Conditions
12:53 AM 36.0 °F - 36.0 °F 100% 30.33 in 2.5 mi Calm Calm - N/A   Clear
1:09 AM 35.6 °F - 33.8 °F 93% 30.31 in 10.0 mi Calm Calm - N/A   Clear
1:53 AM 36.0 °F - 34.0 °F 93% 30.33 in 10.0 mi Calm Calm - N/A   Clear
2:37 AM 33.8 °F - 33.8 °F 100% 30.31 in 1.5 mi Calm Calm - N/A   Clear
2:53 AM 34.0 °F - 33.1 °F 96% 30.33 in 5.0 mi Calm Calm - N/A   Clear
3:28 AM 33.8 °F - 33.8 °F 100% 30.31 in 1.8 mi Calm Calm - N/A   Clear
3:43 AM 33.8 °F - 33.8 °F 100% 30.31 in 3.0 mi Calm Calm - N/A   Clear
3:53 AM 33.1 °F - 33.1 °F 100% 30.32 in 10.0 mi Calm Calm - N/A   Clear
4:16 AM 32.0 °F - 30.2 °F 93% 30.31 in 2.5 mi Calm Calm - N/A   Clear
4:24 AM 32.0 °F - 32.0 °F 100% 30.30 in 4.0 mi Calm Calm - N/A   Clear
4:49 AM 30.2 °F - 30.2 °F 100% 30.30 in 2.0 mi Calm Calm - N/A   Clear
4:53 AM 30.9 °F - 30.9 °F 100% 30.31 in 1.5 mi Calm Calm - N/A   Clear
5:02 AM 30.2 °F - 30.2 °F 100% 30.30 in 10.0 mi Calm Calm - N/A   Clear
5:53 AM 32.0 °F - 32.0 °F 100% 30.32 in 6.0 mi Calm Calm - N/A   Clear
6:53 AM 32.0 °F - 30.9 °F 96% 30.32 in 10.0 mi Calm Calm - N/A   Clear
7:53 AM 34.0 °F - 33.1 °F 96% 30.35 in 4.0 mi Calm Calm - N/A   Clear
8:53 AM 41.0 °F 38.0 °F 37.9 °F 89% 30.36 in 8.0 mi NE 4.6 mph - 0.01 in   Clear
9:53 AM 46.0 °F 43.9 °F 39.0 °F 76% 30.36 in 10.0 mi East 4.6 mph - N/A   Clear
10:53 AM 50.0 °F - 39.0 °F 66% 30.34 in 10.0 mi East 5.8 mph - N/A   Clear
11:53 AM 52.0 °F - 37.9 °F 59% 30.31 in 10.0 mi Variable 6.9 mph - N/A   Clear
1:53 PM 57.0 °F - 36.0 °F 45% 30.25 in 10.0 mi Variable 5.8 mph - N/A   Clear
2:53 PM 57.0 °F - 35.1 °F 44% 30.23 in 10.0 mi East 5.8 mph - N/A   Clear
3:53 PM 55.9 °F - 32.0 °F 40% 30.22 in 10.0 mi East 5.8 mph - N/A   Clear
5:53 PM 51.1 °F - 37.0 °F 59% 30.21 in 10.0 mi ENE 4.6 mph - N/A   Clear
6:53 PM 48.9 °F - 37.0 °F 64% 30.20 in 10.0 mi East 3.5 mph - N/A   Clear
7:53 PM 46.0 °F - 37.0 °F 71% 30.21 in 10.0 mi Calm Calm - N/A   Clear
8:53 PM 46.0 °F - 39.0 °F 76% 30.20 in 10.0 mi Calm Calm - N/A   Overcast
9:53 PM 46.9 °F - 39.0 °F 74% 30.19 in 10.0 mi ENE 3.5 mph - N/A   Overcast
10:53 PM 48.0 °F - 39.0 °F 71% 30.18 in 10.0 mi ENE 6.9 mph - N/A   Overcast
11:53 PM 46.0 °F - 39.0 °F 76% 30.19 in 10.0 mi Calm Calm - N/A   Scattered Clouds